{"data":{"norad_id":63587,"epoch":"2026-09-20T04:04:32.136096Z","epoch_age_seconds":181039,"freshness":"STALE","line1":"1 63587U 25076U   26263.16981639  .00011375  00000+0  42218-3 0  9997","line2":"2 63587  43.0009 303.3635 0001049 247.6942 112.3799 15.27584482 81577","mean_motion":15.27584482,"eccentricity":0.0001049,"inclination_deg":43.0009,"raan_deg":303.3635,"arg_perigee_deg":247.6942,"mean_anomaly_deg":112.3799,"bstar":0.00042218,"rev_number":8157,"period_min":94.266472130868,"perigee_km":482.31593833843,"apogee_km":483.75541236572,"semimajor_km":6861.1726753521,"source":"CELESTRAK","updated_at":"2026-09-21T09:00:35.048417Z"}}